Orbital Elements at Epoch 2459200.5 (2020-Dec-17.0) TDB
Reference: JPL 17 (heliocentric ecliptic J2000)
Element | Value | Uncertainty (1-sigma) | Units |
e | .1675951331702315 | 6.0965e-08 | |
a | 2.756264980810432 | 2.1023e-08 | au |
q | 2.294328384299062 | 1.7536e-07 | au |
i | 4.727025367574027 | 6.944e-06 | deg |
node | 347.1460507504455 | 5.9437e-05 | deg |
peri | 344.652769970989 | 6.1325e-05 | deg |
M | 246.9044075195529 | 1.7454e-05 | deg |
tp | 2459725.577074801315 (2022-May-26.07707480) | 8.3946e-05 | TDB |
period | 1671.397998654582 4.58 | 1.9122e-05 5.235e-08 | d yr |
n | .2153885551435311 | 2.4643e-09 | deg/d |
Q | 3.218201577321802 | 2.4546e-08 | au |
|
| | Orbit Determination Parameters
Additional Information
|